This is the latest recevied weather packets stored in our database for station/object WX4ET. If no packets are shown the sender has not sent any weather packets the latest 10 day(s).
| Time | Temp. | Humidity | Pressure | Rain* | Wind** | Luminosity | Snow |
|---|---|---|---|---|---|---|---|
| 1777922900 | 23.89° C | 53% | 1009 hPa | 0 mm | - | 583 W/m² | - |
| 1777922597 | 24.44° C | 53% | 1009.1 hPa | 0 mm | - | 601 W/m² | - |
| 1777922296 | 24.44° C | 55% | 1009.2 hPa | 0 mm | - | 587 W/m² | - |
| 1777921993 | 25° C | 50% | 1009.1 hPa | 0 mm | - | 592 W/m² | - |
| 1777921688 | 24.44° C | 52% | 1009.2 hPa | 0 mm | - | 614 W/m² | - |
| 1777921385 | 23.89° C | 53% | 1009.4 hPa | 0 mm | - | 233 W/m² | - |
| 1777921081 | 23.33° C | 53% | 1009.4 hPa | 0 mm | - | 620 W/m² | - |
| 1777920778 | 22.78° C | 52% | 1009.5 hPa | 0 mm | - | 619 W/m² | - |
| 1777920474 | 22.78° C | 52% | 1009.5 hPa | 0 mm | - | 622 W/m² | - |
| 1777920170 | 22.78° C | 53% | 1009.8 hPa | 0 mm | - | 613 W/m² | - |
| 1777919866 | 22.22° C | 52% | 1009.7 hPa | 0 mm | - | 606 W/m² | - |
| 1777919563 | 21.67° C | 53% | 1009.8 hPa | 0 mm | - | 599 W/m² | - |
| 1777919261 | 22.78° C | 52% | 1009.8 hPa | 0 mm | - | 621 W/m² | - |
| 1777918958 | 21.67° C | 50% | 1009.8 hPa | 0 mm | - | 648 W/m² | - |
| 1777918656 | 21.67° C | 52% | 1009.9 hPa | 0 mm | - | 673 W/m² | - |
| 1777918353 | 21.67° C | 53% | 1010.1 hPa | 0 mm | - | 571 W/m² | - |
| 1777918052 | 21.11° C | 55% | 1010 hPa | 0 mm | - | 795 W/m² | - |
| 1777917750 | 21.67° C | 52% | 1010.1 hPa | 0 mm | - | 581 W/m² | - |
| 1777917448 | 21.11° C | 55% | 1010.4 hPa | 0 mm | - | 623 W/m² | - |
| 1777917144 | 20.56° C | 54% | 1010.4 hPa | 0 mm | - | 580 W/m² | - |
| 1777916842 | 21.11° C | 53% | 1010.3 hPa | 0 mm | - | 596 W/m² | - |
| 1777916540 | 21.11° C | 56% | 1010.4 hPa | 0 mm | - | 567 W/m² | - |
| 1777916236 | 21.67° C | 51% | 1010.5 hPa | 0 mm | - | 587 W/m² | - |
| 1777915933 | 20° C | 53% | 1010.6 hPa | 0 mm | - | 603 W/m² | - |
| 1777915630 | 19.44° C | 54% | 1010.5 hPa | 0 mm | - | 617 W/m² | - |
* Rain latest hour (hover to see other rain measurements)
** Current wind speed in m/s (hover to see current wind gust speed)